Regional Weather Roundup
Issued by NWS Green Bay, WI

Home | Current Version | Previous Version | Graphics & Text | Print | Product List | Glossary Off
Versions: 1 2 3 4 5 6 7 8 9 10 11 12 13 14 15 16 17 18 19 20 21 22 23 24 25 26 27 28 29 30 31 32 33 34 35 36 37 38 39 40 41 42 43 44 45 46 47 48 49 50

000
ASUS43 KGRB 041810
RWRGRB

NORTH-CENTRAL AND NORTHEAST WISCONSIN REGIONAL WEATHER ROUNDUP
NATIONAL WEATHER SERVICE GREEN BAY WI
1200 PM CST WED MAR 04 2015

WIZ005-009-010>012-018-019-041900-
NORTH CENTRAL WISCONSIN

CITY           SKY/WX    TMP DP  RH WIND       PRES   REMARKS
IRONWOOD       PTSUNNY    1 N/A N/A W16G22    30.03R WCI -18
MANITOWISH WTR CLOUDY     1 -11  56 W15G21    30.01R WCI -18
ARBOR VITAE    MOSUNNY    4  -9  54 NW12G18   30.01R WCI -12
EAGLE RIVER    MOSUNNY    4 -13  46 W14G22    29.98R WCI -14
LAND O LAKES   CLOUDY     5 -11  47 W14G20    29.98R WCI -12
RHINELANDER    MOSUNNY    4 -11  50 NW15G22   30.00R WCI -14
PHILLIPS       PTSUNNY    4 -12  47 W10G20    30.04R WCI -11
ANTIGO         SUNNY      6  -8  51 NW14G23   30.02R WCI -11
TOMAHAWK       MOSUNNY    6 -10  46 W13       30.04R WCI -10
MERRILL          N/A      9  -9  43 W12G18    30.06R HAZE    WCI  -6
$$

WIZ013-073-041900-
NORTHEAST WISCONSIN

CITY           SKY/WX    TMP DP  RH WIND       PRES   REMARKS
IRON MOUNTAIN  SUNNY      9  -8  46 W16G25    29.98R WCI  -8
MARINETTE      SUNNY     12  -8  40 W7G16     30.05R WCI   2
OCONTO         SUNNY     12  -6  43 W9G23     30.09R WCI   0
$$

WIZ017-030-035>037-045-041900-
CENTRAL WISCONSIN

CITY           SKY/WX    TMP DP  RH WIND       PRES   REMARKS
MEDFORD          N/A      6 -10  48 W17G26    30.07R WCI -13
WAUSAU           N/A      6  -7  54 W20       30.08R WCI -14
MOSINEE        SUNNY      7  -8  51 W14G24    30.11R WCI -10
MARSHFIELD       N/A      7  -9  48 NW16      30.12R WCI -11
WISC RAPIDS      N/A     11  -8  42 NW17G24   30.15R WCI  -6
STEVENS POINT    N/A      7  -9  48 W10G20    30.13R WCI  -8
WAUPACA        MOSUNNY   14  -4  44 W14G24    30.14R WCI  -1
SHAWANO        SUNNY     14  -7  38 W13G18    30.10R WCI   0
CLINTONVILLE   SUNNY     12  -6  44 W13G23    30.11R WCI  -3
$$

WIZ038-039-048-051-041900-
FOX VALLEY

CITY           SKY/WX    TMP DP  RH WIND       PRES   REMARKS
NWS GREEN BAY  SUNNY     12  -3  51 W16G26    30.11R WCI  -5
APPLETON       SUNNY     10  -6  48 W16G25    30.11  WCI  -7
OSHKOSH        SUNNY     13  -2  51 NW16      30.12R WCI  -3
FOND DU LAC    SUNNY     14  -2  49 W22G30    30.12R WCI  -4
$$

WIZ022-050-052-041900-
EAST CENTRAL WISCONSIN

CITY           SKY/WX    TMP DP  RH WIND       PRES   REMARKS
STURGEON BAY   SUNNY     10  -6  48 W14G21    30.08R WCI  -5
MANITOWOC      SUNNY     15  -1  49 W22       30.10R WCI  -3
SHEBOYGAN      SUNNY     13  -2  51 NW18      30.10R WCI  -4
$$

LMZ563-521-522-541>543-041900-
LAKESHORE

STATION/POSITION TIME  TEMP    WIND        PRES    VSBY  WAVE
                       AIR SEA DIR/SP/G                  HT/PER
                 (UTC) (F)     (DEG/KT/KT) (MB)    (MI)  (FT/S)
SHEBOYGAN LKSHOR 1800   12     290/ 21/ 24 1020.8R
KEWAUNEE LKSHORE 1800   11     290/ 15/ 21 1017.9R
NORTHPORT PIER   1800   11     300/ 12/ 20 1017.3R
SISTER BAY LKSHO 1700   16     310/ 14/ 15   N/A
CHAMBERS ISLAND  1800   14     250/  6/ 13 1017.6S
MENOMINEE LKSHOR 1800   12     270/ 12     1018.3R
$$



USA.gov is the U.S. government's official web portal to all federal, state and local government web resources and services.